Tracking 30743 objects as of 22-Jun-2025
HD Live streaming from Space Station
objects crossing your sky now

OBJECT A

Track OBJECT A now!
10-day predictions


NORAD ID: 53444
Int'l Code: 2022-098A
Perigee: 458.8 km
Apogee: 467.4 km
Inclination: 97.5 °
Period: 93.7 minutes
Semi major axis: 6834 km
RCS: Unknown
Launch date: August 10, 2022
Source: People's Republic of China (PRC)
Launch site: Taiyaun Space Center, China (TSC)
Your satellite tracking list
Your tracking list is empty




NASA's NSSDC Master Catalog

Two Line Element Set (TLE):
1 53444U 22098A   25173.54599692  .00013401  00000-0  37605-3 0  9991
2 53444  97.5329 282.4556 0006275 221.8768 138.1997 15.36675650159022
Source of the keplerian elements: AFSPC